Weather History for LGEL - September, 2013

Change the Weather History Date:

Monday, September 30, 2013

  Actual Average Record
Temperature  
Mean Temperature 74 °F -  
Max Temperature 84 °F 72 °F 93 °F (2012)
Min Temperature 64 °F 57 °F 53 °F (2008)
Cooling Degree Days 9    
Growing Degree Days 24 (Base 50)    
Moisture  
Dew Point 61 °F    
Average Humidity 60    
Maximum Humidity 77    
Minimum Humidity 42    
Precipitation  
Precipitation 0.00 in - - ()
Sea Level Pressure  
Sea Level Pressure 29.75 in    
Wind  
Wind Speed 1 mph ()    
Max Wind Speed 9 mph    
Max Gust Speed -    
Visibility 6.2 miles    
Events      
Averages and records for this station are not official NWS values.
T = Trace of Precipitation, MM = Missing Value Source: Averaged Metar Reports

Daily Weather History Graph

Daily Weather History Graph

Search for Another Location

Airport or City:

Trip Planner

Search our weather history database for the weather conditions in past years. The results will help you decide how hot, cold, wet, or windy it might be!

Date:

Astronomy

Sep. 30, 2013 Rise Set
Actual Time 7:20 AM EEST 7:10 PM EEST
Civil Twilight 6:54 AM EEST 7:36 PM EEST
Nautical Twilight 6:23 AM EEST 8:07 PM EEST
Astronomical Twilight 5:52 AM EEST 8:37 PM EEST
Moon 2:43 AM EEST 4:27 PM EEST
Length of Visible Light 12h 42m
Length of Day
11h 49m
Waning Crescent, 21% of the Moon is Illuminated
Sep 30
Waning Crescent
Oct 5
New
Oct 12
First Quarter
Oct 19
Full
Oct 27
Last Quarter

Hourly Weather History & Observations

Time (EEST) Temp. Heat Index Dew Point Humidity Pressure Visibility Wind Dir Wind Speed Gust Speed Precip Events Conditions
12:50 AM 68.0 °F - 57.2 °F 68% 29.89 in - Calm Calm - N/A   Clear
1:50 AM 68.0 °F - 57.2 °F 68% 29.86 in - Calm Calm - N/A   Clear
2:50 AM 66.2 °F - 55.4 °F 68% 29.86 in - Calm Calm - N/A   Clear
3:50 AM 66.2 °F - 57.2 °F 73% 29.83 in - North 3.5 mph - N/A   Clear
4:50 AM 66.2 °F - 55.4 °F 68% 29.83 in 6.2 mi Calm Calm - N/A   Scattered Clouds
5:50 AM 64.4 °F - 57.2 °F 77% 29.83 in 6.2 mi Calm Calm - N/A   Scattered Clouds
6:20 AM 66.2 °F - 57.2 °F 73% 29.83 in 6.2 mi North 4.6 mph - N/A   Scattered Clouds
6:50 AM 66.2 °F - 57.2 °F 73% 29.83 in 6.2 mi Calm Calm - N/A   Partly Cloudy
7:20 AM 64.4 °F - 57.2 °F 77% 29.80 in 6.2 mi Calm Calm - N/A   Partly Cloudy
7:50 AM 64.4 °F - 57.2 °F 77% 29.80 in 6.2 mi Calm Calm - N/A   Partly Cloudy
8:20 AM 68.0 °F - 57.2 °F 68% 29.80 in 6.2 mi Calm Calm - N/A   Partly Cloudy
8:50 AM 69.8 °F - 59.0 °F 68% 29.80 in 6.2 mi Calm Calm - N/A   Partly Cloudy
9:20 AM 73.4 °F - 59.0 °F 61% 29.83 in 6.2 mi Calm Calm - N/A   Partly Cloudy
9:50 AM 77.0 °F - 62.6 °F 61% 29.83 in 6.2 mi Calm Calm - N/A   Partly Cloudy
10:20 AM 77.0 °F - 62.6 °F 61% 29.80 in - Calm Calm - N/A   Clear
10:50 AM 78.8 °F - 62.6 °F 57% 29.80 in - Calm Calm - N/A   Clear
11:20 AM 80.6 °F 81.8 °F 62.6 °F 54% 29.80 in - Calm Calm - N/A   Clear
11:50 AM 80.6 °F 81.5 °F 60.8 °F 51% 29.80 in - Calm Calm - N/A   Clear
12:20 PM 82.4 °F 82.9 °F 60.8 °F 48% 29.80 in - South 4.6 mph - N/A   Clear
12:50 PM 84.2 °F 83.8 °F 59.0 °F 42% 29.77 in 6.2 mi Variable 3.5 mph - N/A   Scattered Clouds
1:20 PM 82.4 °F 82.9 °F 60.8 °F 48% 29.77 in 6.2 mi South 5.8 mph - N/A   Scattered Clouds
1:50 PM 82.4 °F 83.9 °F 64.4 °F 54% 29.77 in 6.2 mi South 6.9 mph - N/A   Scattered Clouds
2:20 PM 82.4 °F 84.6 °F 66.2 °F 58% 29.74 in 6.2 mi South 8.1 mph - N/A   Scattered Clouds
2:50 PM 82.4 °F 83.9 °F 64.4 °F 54% 29.74 in 6.2 mi South 9.2 mph - N/A   Mostly Cloudy
3:20 PM 82.4 °F 83.9 °F 64.4 °F 54% 29.74 in 6.2 mi South 9.2 mph - N/A   Mostly Cloudy
3:50 PM 82.4 °F 83.9 °F 64.4 °F 54% 29.68 in - South 9.2 mph - N/A   Clear
4:20 PM 82.4 °F 83.9 °F 64.4 °F 54% 29.68 in - South 9.2 mph - N/A   Clear
4:50 PM 82.4 °F 83.9 °F 64.4 °F 54% 29.68 in - Calm Calm - N/A   Clear
5:20 PM 82.4 °F 83.4 °F 62.6 °F 51% 29.68 in - Calm Calm - N/A   Clear
5:50 PM 82.4 °F 83.4 °F 62.6 °F 51% 29.68 in - Calm Calm - N/A   Clear
6:20 PM 80.6 °F 81.8 °F 62.6 °F 54% 29.68 in - Calm Calm - N/A   Clear
6:50 PM 80.6 °F 81.8 °F 62.6 °F 54% 29.68 in - East 6.9 mph - N/A   Clear
7:20 PM 80.6 °F 82.3 °F 64.4 °F 58% 29.68 in - Calm Calm - N/A   Clear
7:50 PM 78.8 °F - 64.4 °F 61% 29.65 in - Calm Calm - N/A   Clear
8:20 PM 78.8 °F - 64.4 °F 61% 29.65 in - Calm Calm - N/A   Clear
8:50 PM 78.8 °F - 64.4 °F 61% 29.65 in - Calm Calm - N/A   Clear
9:20 PM 78.8 °F - 64.4 °F 61% 29.65 in - Calm Calm - N/A   Clear
9:50 PM 80.6 °F 81.5 °F 60.8 °F 51% 29.65 in - Calm Calm - N/A   Clear
10:20 PM 78.8 °F - 60.8 °F 54% 29.65 in - Calm Calm - N/A   Clear
10:50 PM 78.8 °F - 60.8 °F 54% 29.65 in - Calm Calm - N/A   Clear
11:50 PM 78.8 °F - 66.2 °F 65% 29.65 in - Calm Calm - N/A   Clear